Regional Weather Roundup
Issued by NWS Little Rock, AR

Home | Current Version | Previous Version | Text Only | Print | Product List | Glossary Off
Versions: 1 2 3 4 5 6 7 8 9 10 11 12 13 14 15 16 17 18 19 20 21 22 23 24 25 26 27 28 29 30 31 32 33 34 35 36 37 38 39 40 41 42 43 44 45 46 47 48 49 50

000
ASUS44 KLZK 211705
RWRLZK

WEATHER ROUNDUP FOR ARKANSAS
NATIONAL WEATHER SERVICE LITTLE ROCK AR
1200 PM CDT THU AUG 21 2014

NOTE: "FAIR" INDICATES FEW OR NO CLOUDS BELOW 12,000 FEET WITH NO
SIGNIFICANT WEATHER AND/OR OBSTRUCTIONS TO VISIBILITY.

ARZ001-003-010-029-211800-
NORTHWEST ARKANSAS

CITY           SKY/WX    TMP DP  RH WIND       PRES   REMARKS
FAYETTEVILLE   SUNNY     86  71  60 SW15      30.08S HX  91
FORT SMITH     SUNNY     89  71  55 SW10      30.05S HX  95
HARRISON       SUNNY     88  70  55 SW9G16    30.09S HX  93
BENTONVILLE    MOSUNNY   88  70  55 SW13G20   30.08S HX  92
ROGERS         MOSUNNY   88  67  49 SW13      30.08S HX  91
SILOAM SPGS    SUNNY     84  70  61 S15G24    30.07S HX  88
HIGHFILL       MOSUNNY   87  69  54 S14G23    30.07S HX  91
$$

ARZ004-005-016-211800-
NORTH CENTRAL ARKANSAS

CITY           SKY/WX    TMP DP  RH WIND       PRES   REMARKS
BATESVILLE     SUNNY     91  72  52 SW15G21   30.07S HX  98
FLIPPIN        SUNNY     90  68  48 SW8G16    30.06S HX  93
MTN HOME       MOSUNNY   92  70  48 W6        30.06S HX  97
$$

ARZ040-041-211800-
WEST CENTRAL ARKANSAS

CITY           SKY/WX    TMP DP  RH WIND       PRES   REMARKS
MENA           MOSUNNY   86  73  66 CALM      30.12S HX  93
MOUNT IDA      SUNNY     84  71  65 SW6       30.10R HX  89
$$

ARZ009-017-025-026-028-211800-
NORTHEAST ARKANSAS

CITY           SKY/WX    TMP DP  RH WIND       PRES   REMARKS
CORNING        LGT RAIN  90  73  58 SW15      30.06F HX  98
JONESBORO      SUNNY     90  74  59 SW14      30.08S HX  99
NEWPORT        SUNNY     92  75  57 S10       30.08F HX 102
WALNUT RIDGE   SUNNY     90  72  55 S15       30.05F HX  96
BLYTHEVILLE    SUNNY     87  77  72 SW9       30.09F HX  99
$$

ARZ022-023-033-042-044-211800-
CENTRAL ARKANSAS

CITY           SKY/WX    TMP DP  RH WIND       PRES   REMARKS
LITTLE ROCK    MOSUNNY   88  71  57 SW10      30.09S HX  94
N LITTLE ROCK  MOSUNNY   87  74  66 SW8       30.09S HX  96
JACKSONVILLE   SUNNY     89  73  59 SW14      30.09S HX  96
SEARCY           N/A     91  74  57 CALM        N/A  HX 100
HOT SPRINGS    MOSUNNY   85  72  65 W9        30.11S HX  91
RUSSELLVILLE   SUNNY     89  71  55 MISG      30.07F HX  95
CLINTON        FAIR      90  73  58 SW6       30.08F HAZE    HX  98
$$

ARZ036-211800-
EAST ARKANSAS

CITY           SKY/WX    TMP DP  RH WIND       PRES   REMARKS
WEST MEMPHIS   MOSUNNY   89  76  65 VRB6G16   30.09F HX 100
$$

ARZ050-053-066-070-073-211800-
SOUTHWEST ARKANSAS

CITY           SKY/WX    TMP DP  RH WIND       PRES   REMARKS
ARKADELPHIA    PTSUNNY   87  77  72 W6        30.11S HX  98
CAMDEN         MOSUNNY   90  73  58 SW8       30.10S HX  98
TEXARKANA      MOSUNNY   87  75  67 SW9       30.10F HX  96
EL DORADO      MOSUNNY   88  74  63 S10       30.11F HX  96
DE QUEEN       PTSUNNY   85  75  72 S12       30.07S HX  93
$$

ARZ056-057-069-211800-
SOUTHEAST ARKANSAS

CITY           SKY/WX    TMP DP  RH WIND       PRES   REMARKS
PINE BLUFF     SUNNY     88  73  61 W8        30.10F HX  95
STUTTGART      MOSUNNY   90  77  66 SW13      30.11S HX 102
MONTICELLO     MOSUNNY   89  76  65 W9        30.10F HX 100

$$




USA.gov is the U.S. government's official web portal to all federal, state and local government web resources and services.